| time (UTC) | temp C | wind direction | speed KPH | gust KPH | rain 1hr cm | rain 24hr cm | rain mn cm | humidity % | barometer mb |
| 20260504000346 | 24 | 126 | 3.2 | 4.8 | 0.00 | 0.00 | 0.00 | 46 | 1017.9 |
| 20260503235331 | 24 | 128 | 3.2 | 8.0 | 0.00 | 0.00 | 0.00 | 44 | 1017.9 |
| 20260503234357 | 25 | 140 | 1.6 | 6.4 | 0.00 | 0.00 | 0.00 | 42 | 1017.9 |
| 20260503233327 | 25 | 150 | 1.6 | 4.8 | 0.00 | 0.00 | 0.00 | 40 | 1018.0 |
| 20260503232352 | 25 | 138 | 1.6 | 9.7 | 0.00 | 0.00 | 0.00 | 41 | 1018.0 |
| 20260503231336 | 25 | 113 | 4.8 | 12.9 | 0.00 | 0.00 | 0.00 | 40 | 1018.1 |
| 20260503230341 | 25 | 147 | 3.2 | 9.7 | 0.00 | 0.00 | 0.00 | 43 | 1018.3 |
| 20260503225328 | 25 | 146 | 3.2 | 8.0 | 0.00 | 0.00 | 0.00 | 45 | 1018.2 |
| 20260503224354 | 25 | 144 | 3.2 | 12.9 | 0.00 | 0.00 | 0.00 | 44 | 1018.4 |
| 20260503223336 | 25 | 135 | 6.4 | 12.9 | 0.00 | 0.00 | 0.00 | 43 | 1018.5 |
| 20260503222325 | 25 | 138 | 4.8 | 11.3 | 0.00 | 0.00 | 0.00 | 41 | 1018.7 |
| 20260503221333 | 25 | 123 | 3.2 | 6.4 | 0.00 | 0.00 | 0.00 | 43 | 1018.6 |
| 20260503220337 | 25 | 152 | 4.8 | 11.3 | 0.00 | 0.00 | 0.00 | 41 | 1019.0 |
| 20260503215325 | 26 | 154 | 3.2 | 8.0 | 0.00 | 0.00 | 0.00 | 45 | 1019.1 |
| 20260503214334 | 25 | 151 | 4.8 | 11.3 | 0.00 | 0.00 | 0.00 | 42 | 1019.0 |
| 20260503213336 | 25 | 142 | 3.2 | 8.0 | 0.00 | 0.00 | 0.00 | 44 | 1019.2 |
| 20260503212324 | 25 | 143 | 3.2 | 11.3 | 0.00 | 0.00 | 0.00 | 45 | 1019.3 |
| 20260503211355 | 25 | 140 | 1.6 | 16.1 | 0.00 | 0.00 | 0.00 | 42 | 1019.6 |
| 20260503210339 | 25 | 140 | 1.6 | 8.0 | 0.00 | 0.00 | 0.00 | 44 | 1019.6 |
| 20260503205326 | 25 | 223 | 3.2 | 19.3 | 0.00 | 0.00 | 0.00 | 41 | 1019.9 |
| 20260503204332 | 25 | 197 | 1.6 | 16.1 | 0.00 | 0.00 | 0.00 | 42 | 1020.1 |
| 20260503203336 | 25 | 82 | 4.8 | 12.9 | 0.00 | 0.00 | 0.00 | 47 | 1020.2 |
| 20260503202402 | 25 | 167 | 3.2 | 11.3 | 0.00 | 0.00 | 0.00 | 45 | 1020.4 |
| 20260503201327 | 25 | 133 | 4.8 | 12.9 | 0.00 | 0.00 | 0.00 | 43 | 1020.5 |
| 20260503200331 | 25 | 141 | 3.2 | 12.9 | 0.00 | 0.00 | 0.00 | 43 | 1020.7 |
| 20260503195403 | 25 | 140 | 4.8 | 12.9 | 0.00 | 0.00 | 0.00 | 46 | 1020.9 |
| 20260503194329 | 25 | 203 | 1.6 | 4.8 | 0.00 | 0.00 | 0.00 | 44 | 1021.0 |
| 20260503193351 | 25 | 119 | 1.6 | 6.4 | 0.00 | 0.00 | 0.00 | 43 | 1021.2 |
| 20260503192356 | 25 | 190 | 1.6 | 14.5 | 0.00 | 0.00 | 0.00 | 45 | 1021.3 |
| 20260503191341 | 25 | 201 | 3.2 | 11.3 | 0.00 | 0.00 | 0.00 | 45 | 1021.5 |
| 20260503190326 | 25 | 155 | 3.2 | 8.0 | 0.00 | 0.00 | 0.00 | 46 | 1021.6 |
| 20260503185352 | 25 | 130 | 3.2 | 11.3 | 0.00 | 0.00 | 0.00 | 46 | 1021.9 |
| 20260503184338 | 25 | 78 | 4.8 | 8.0 | 0.00 | 0.00 | 0.00 | 49 | 1021.9 |
| 20260503183342 | 25 | 196 | 1.6 | 11.3 | 0.00 | 0.00 | 0.00 | 44 | 1022.1 |
| 20260503182332 | 25 | 135 | 6.4 | 11.3 | 0.00 | 0.00 | 0.00 | 49 | 1022.2 |
| 20260503181359 | 25 | 142 | 3.2 | 12.9 | 0.00 | 0.00 | 0.00 | 46 | 1022.4 |
| 20260503180343 | 25 | 129 | 3.2 | 9.7 | 0.00 | 0.00 | 0.00 | 45 | 1022.5 |
| 20260503175330 | 24 | 132 | 1.6 | 12.9 | 0.00 | 0.00 | 0.00 | 47 | 1022.7 |
| 20260503174337 | 25 | 174 | 3.2 | 8.0 | 0.00 | 0.00 | 0.00 | 48 | 1022.9 |
| 20260503173341 | 24 | 201 | 1.6 | 9.7 | 0.00 | 0.00 | 0.00 | 48 | 1023.0 |
| 20260503172330 | 24 | 174 | 3.2 | 9.7 | 0.00 | 0.00 | 0.00 | 47 | 1023.2 |
| 20260503171339 | 24 | 177 | 1.6 | 6.4 | 0.00 | 0.00 | 0.00 | 48 | 1023.3 |
| 20260503170342 | 24 | 213 | 1.6 | 9.7 | 0.00 | 0.00 | 0.00 | 51 | 1023.4 |
| 20260503150335 | 22 | 148 | 0.0 | 6.4 | 0.00 | 0.00 | 0.00 | 58 | 1023.4 |
| 20260503131340 | 15 | 277 | 0.0 | 0.0 | 0.00 | 0.00 | 0.00 | 94 | 1022.7 |
| 20260503130327 | 14 | 327 | 0.0 | 0.0 | 0.00 | 0.00 | 0.00 | 94 | 1022.6 |
| 20260503110326 | 12 | 327 | 0.0 | 0.0 | 0.00 | 0.00 | 0.00 | 93 | 1022.0 |
| 20260503090334 | 13 | 327 | 0.0 | 1.6 | 0.00 | 0.00 | 0.00 | 93 | 1021.3 |
| 20260503081339 | 13 | 327 | 0.0 | 1.6 | 0.00 | 0.00 | 0.00 | 93 | 1021.4 |
| 20260503080324 | 13 | 325 | 0.0 | 3.2 | 0.00 | 0.00 | 0.00 | 93 | 1021.5 |
| 20260503072323 | 14 | 319 | 0.0 | 0.0 | 0.00 | 0.00 | 0.00 | 92 | 1021.6 |
| 20260503071330 | 14 | 319 | 0.0 | 0.0 | 0.00 | 0.00 | 0.00 | 92 | 1021.5 |
| 20260503070358 | 14 | 319 | 0.0 | 0.0 | 0.00 | 0.00 | 0.00 | 92 | 1021.6 |
| 20260503060326 | 15 | 319 | 0.0 | 0.0 | 0.00 | 0.00 | 0.00 | 91 | 1021.5 |
| 20260503054342 | 15 | 319 | 0.0 | 0.0 | 0.00 | 0.00 | 0.00 | 91 | 1021.6 |
| 20260503053329 | 15 | 319 | 0.0 | 0.0 | 0.00 | 0.00 | 0.00 | 91 | 1021.4 |
| 20260503052338 | 15 | 319 | 0.0 | 0.0 | 0.00 | 0.00 | 0.00 | 91 | 1021.5 |
| 20260503051326 | 15 | 319 | 0.0 | 0.0 | 0.00 | 0.00 | 0.00 | 91 | 1021.4 |
| 20260503050333 | 15 | 319 | 0.0 | 0.0 | 0.00 | 0.00 | 0.00 | 91 | 1021.3 |
| 20260503045341 | 15 | 319 | 0.0 | 0.0 | 0.00 | 0.00 | 0.00 | 91 | 1021.3 |
| 20260503044329 | 16 | 319 | 0.0 | 0.0 | 0.00 | 0.00 | 0.00 | 91 | 1021.3 |
| 20260503043337 | 16 | 319 | 0.0 | 0.0 | 0.00 | 0.00 | 0.00 | 90 | 1021.1 |
| 20260503042349 | 16 | 319 | 0.0 | 0.0 | 0.00 | 0.00 | 0.00 | 90 | 1021.2 |
| 20260503041333 | 16 | 319 | 0.0 | 0.0 | 0.00 | 0.00 | 0.00 | 90 | 1021.2 |
| 20260503040341 | 16 | 319 | 0.0 | 0.0 | 0.00 | 0.00 | 0.00 | 89 | 1021.0 |
| 20260503035329 | 16 | 319 | 0.0 | 0.0 | 0.00 | 0.00 | 0.00 | 89 | 1021.1 |
| 20260503034335 | 16 | 319 | 0.0 | 0.0 | 0.00 | 0.00 | 0.00 | 89 | 1021.2 |
| 20260503033341 | 16 | 319 | 0.0 | 0.0 | 0.00 | 0.00 | 0.00 | 89 | 1021.0 |
| 20260503032350 | 16 | 319 | 0.0 | 0.0 | 0.00 | 0.00 | 0.00 | 89 | 1020.8 |
| 20260503031336 | 16 | 319 | 0.0 | 0.0 | 0.00 | 0.00 | 0.00 | 88 | 1020.6 |
| 20260503030324 | 16 | 319 | 0.0 | 0.0 | 0.00 | 0.00 | 0.00 | 87 | 1020.6 |
| 20260503025332 | 17 | 319 | 0.0 | 0.0 | 0.00 | 0.00 | 0.00 | 86 | 1020.5 |
| 20260503024324 | 17 | 319 | 0.0 | 0.0 | 0.00 | 0.00 | 0.00 | 86 | 1020.4 |
| 20260503023331 | 17 | 319 | 0.0 | 0.0 | 0.00 | 0.00 | 0.00 | 85 | 1020.5 |
| 20260503022334 | 17 | 319 | 0.0 | 0.0 | 0.00 | 0.00 | 0.00 | 84 | 1020.4 |
| 20260503021401 | 17 | 319 | 0.0 | 0.0 | 0.00 | 0.00 | 0.00 | 83 | 1020.2 |
| 20260503020403 | 18 | 319 | 0.0 | 0.0 | 0.00 | 0.00 | 0.00 | 82 | 1020.1 |
| 20260503015328 | 18 | 319 | 0.0 | 0.0 | 0.00 | 0.10 | 0.00 | 80 | 1019.9 |
| 20260503014334 | 19 | 319 | 0.0 | 0.0 | 0.00 | 0.10 | 0.00 | 76 | 1019.9 |
| 20260503013358 | 20 | 319 | 0.0 | 0.0 | 0.00 | 0.10 | 0.00 | 74 | 1019.8 |
| 20260503012403 | 21 | 319 | 0.0 | 0.0 | 0.00 | 0.10 | 0.00 | 70 | 1019.8 |
| 20260503011326 | 21 | 319 | 0.0 | 0.0 | 0.00 | 0.10 | 0.00 | 64 | 1019.6 |
| 20260503010333 | 22 | 319 | 0.0 | 0.0 | 0.00 | 0.10 | 0.00 | 60 | 1019.4 |
| 20260503005357 | 22 | 319 | 0.0 | 0.0 | 0.00 | 0.46 | 0.00 | 59 | 1019.3 |
| 20260503004324 | 23 | 319 | 0.0 | 0.0 | 0.00 | 0.46 | 0.00 | 55 | 1019.3 |
| 20260503003328 | 24 | 318 | 0.0 | 3.2 | 0.00 | 0.46 | 0.00 | 53 | 1019.1 |
| 20260503002332 | 25 | 324 | 1.6 | 6.4 | 0.00 | 0.46 | 0.00 | 50 | 1019.1 |